"Time","Temp","Dewpoint","Humidity","Pressure","Direction","Speed","Gust","Precip","PrecipRate"
"00:04:57","73.4","58.5","59.6","30.15","188","0","0","0.00","0.00"
"00:09:57","73.1","58.6","60.4","30.15","187","0.1","1.2","0.00","0.00"
"00:14:58","72.9","59","62","30.15","187","0.3","1.2","0.00","0.00"
"00:19:58","72.6","59","62.3","30.14","187","0.2","1.2","0.00","0.00"
"00:24:59","72.5","58.8","62.4","30.14","187","0.6","1.2","0.00","0.00"
"00:29:58","72.3","58.5","62","30.14","187","0.1","1.2","0.00","0.00"
"00:34:59","72.3","58.3","61.7","30.14","187","0","0","0.00","0.00"
"00:39:56","72.2","58.2","61.3","30.14","187","0.1","2.3","0.00","0.00"
"00:44:56","72.5","58.4","61.3","30.14","188","0.2","2.3","0.00","0.00"
"00:49:59","72.6","58.6","61.5","30.14","188","0.2","1.2","0.00","0.00"
"00:54:56","72.8","59.1","62.1","30.14","188","0.1","1.2","0.00","0.00"
"00:59:59","72.8","59","61.9","30.14","188","0.6","2","0.00","0.00"
"01:04:59","72.8","59","62","30.13","188","0.1","1.2","0.00","0.00"
"01:09:59","72.8","59.3","62.6","30.13","188","0","0","0.00","0.00"
"01:14:58","72.7","59.2","62.7","30.13","188","0.1","2","0.00","0.00"
"01:19:56","72.5","59.5","63.8","30.13","188","0.3","1.2","0.00","0.00"
"01:24:57","72.2","59.7","64.7","30.13","188","0","1.2","0.00","0.00"
"01:29:57","72","59.8","65.4","30.13","188","0","1.2","0.00","0.00"
"01:34:56","71.8","59.8","66","30.12","188","0","0","0.00","0.00"
"01:39:56","71.5","59.5","66","30.12","188","0","1.2","0.00","0.00"
"01:44:59","71.3","59.8","67","30.12","188","0","1.2","0.00","0.00"
"01:49:58","71","59.8","67.8","30.12","188","0","0","0.00","0.00"
"01:54:58","70.8","60.2","69.3","30.12","188","0","0","0.00","0.00"
"01:59:57","70.5","59.8","69","30.12","188","0","0","0.00","0.00"
"02:04:59","70.3","59.8","69.2","30.11","188","0","0","0.00","0.00"
"02:09:56","70.2","60","70","30.11","188","0","0","0.00","0.00"
"02:14:57","70","60.1","70.7","30.11","188","0","0","0.00","0.00"
"02:19:57","69.8","60","71","30.11","188","0","1","0.00","0.00"
"02:24:56","69.7","59.9","71","30.11","188","0","0","0.00","0.00"
"02:29:58","69.6","60.1","71.9","30.11","188","0","0","0.00","0.00"
"02:34:57","69.4","59.8","71.5","30.10","188","0","0","0.00","0.00"
"02:39:58","69.3","59.8","71.6","30.10","188","0","0","0.00","0.00"
"02:44:57","69.2","60.2","72.9","30.10","188","0","0","0.00","0.00"
"02:49:58","69.1","60.2","73.3","30.10","188","0","0","0.00","0.00"
"02:54:57","68.8","60.2","74","30.10","188","0","0","0.00","0.00"
"02:59:55","68.7","60","73.8","30.10","188","0","0","0.00","0.00"
"03:04:57","68.5","59.7","73.4","30.10","188","0","0","0.00","0.00"
"03:09:58","68.5","59.7","73.7","30.10","188","0","0","0.00","0.00"
"03:14:56","68.4","59.7","73.6","30.10","188","0","0","0.00","0.00"
"03:19:58","68.3","59.7","74","30.10","188","0","0","0.00","0.00"
"03:24:58","68.1","59.9","75","30.10","188","0","0","0.00","0.00"
"03:29:57","67.9","60","75.8","30.10","188","0","0","0.00","0.00"
"03:34:57","67.6","60.2","77.1","30.10","188","0","0","0.00","0.00"
"03:39:59","67.3","60.2","78","30.10","188","0.3","2.3","0.00","0.00"
"03:44:59","67.1","60.1","78.3","30.10","188","0","1.2","0.00","0.00"
"03:49:56","66.8","60.1","79","30.09","188","0","0","0.00","0.00"
"03:54:57","66.5","59.8","79","30.09","188","0","0","0.00","0.00"
"03:59:58","66.2","59.7","79.7","30.09","188","0.2","1.2","0.00","0.00"
"04:04:59","66","59.7","80","30.09","188","0","0","0.00","0.00"
"04:09:57","65.9","59.6","80","30.09","188","0","0","0.00","0.00"
"04:14:58","65.8","59.5","80","30.09","188","0","0","0.00","0.00"
"04:19:56","65.6","59.3","80","30.09","188","0","0","0.00","0.00"
"04:24:57","65.5","59.2","80","30.09","188","0","0","0.00","0.00"
"04:29:59","65.4","59.1","80","30.10","188","0.1","1.2","0.00","0.00"
"04:34:56","65.4","59.1","80","30.10","188","0","1.2","0.00","0.00"
"04:39:55","65.3","59.3","80.9","30.10","188","0","0","0.00","0.00"
"04:44:56","65.1","59.3","81.5","30.10","188","0.2","2.3","0.00","0.00"
"04:49:57","65","59.6","82.6","30.09","188","0.3","2.3","0.00","0.00"
"04:54:57","65","59.7","83","30.09","188","0","1.2","0.00","0.00"
"04:59:59","65","59.7","83","30.10","188","0.2","1.2","0.00","0.00"
"05:04:56","65.2","59.9","83","30.10","188","0.1","1.2","0.00","0.00"
"05:09:57","65.4","59.8","82.1","30.10","188","0","1.2","0.00","0.00"
"05:14:57","65.5","59.9","81.8","30.10","188","0","0","0.00","0.00"
"05:19:58","65.8","59.9","81.3","30.09","187","0","1.2","0.00","0.00"
"05:24:59","66.3","60","80.1","30.09","279","0.3","3.5","0.00","0.00"
"05:29:57","66.8","60","78.6","30.09","211","0.7","2.3","0.00","0.00"
"05:34:59","67.5","60.2","77.2","30.09","280","0.9","3.5","0.00","0.00"
"05:39:59","68.2","60.3","76","30.09","282","0.2","2.3","0.00","0.00"
"05:44:57","68.5","60.3","75.1","30.09","282","0.1","2","0.00","0.00"
"05:49:58","68.7","60.4","74.8","30.09","282","0.6","2.3","0.00","0.00"
"05:54:57","68.8","60.6","75.1","30.09","282","0.3","2.3","0.00","0.00"
"05:59:59","68.8","60.7","75.2","30.10","282","0","1.2","0.00","0.00"
"06:04:55","68.8","60.4","74.6","30.10","282","0","1.2","0.00","0.00"
"06:09:57","68.8","60.7","75.2","30.10","282","0.1","1.2","0.00","0.00"
"06:14:58","68.7","60.7","75.7","30.10","282","0","1.2","0.00","0.00"
"06:19:56","68.6","60.7","76","30.10","282","0","0","0.00","0.00"
"06:24:57","68.5","60.4","75.4","30.10","282","0","0","0.00","0.00"
"06:29:59","68.4","60.8","76.8","30.10","282","0","0","0.00","0.00"
"06:34:56","68.3","60.8","77","30.10","282","0","0","0.00","0.00"
"06:39:56","68.2","61","77.7","30.10","282","0","0","0.00","0.00"
"06:44:58","68","61.1","78.7","30.10","280","0","0","0.00","0.00"
"06:49:56","67.9","61.1","79","30.10","280","0","0","0.00","0.00"
"06:54:57","67.7","61.2","79.5","30.10","280","0","0","0.00","0.00"
"06:59:59","67.7","61.3","80","30.11","280","0","0","0.00","0.00"
"07:04:59","67.7","61.3","80","30.11","280","0","0","0.00","0.00"
"07:09:56","67.8","61.6","80.6","30.11","280","0","1","0.00","0.00"
"07:14:57","68.2","61.9","80.4","30.11","302","0.7","4","0.00","0.00"
"07:19:58","68.8","61.7","77.9","30.11","310","0.1","2.3","0.00","0.00"
"07:24:56","69.7","61.4","75.2","30.11","309","0.7","2.3","0.00","0.00"
"07:29:57","70.5","61.7","73.8","30.11","300","1.1","3.5","0.00","0.00"
"07:34:59","71.2","61.4","71","30.10","279","0.9","3.5","0.00","0.00"
"07:39:58","71.7","61.4","69.9","30.10","257","1","3.5","0.00","0.00"
"07:44:59","72","61.3","69.1","30.10","269","1.1","4","0.00","0.00"
"07:49:56","72.2","61.1","67.9","30.10","259","1.1","5","0.00","0.00"
"07:54:57","72.5","61.2","67.9","30.10","283","1.2","3.5","0.00","0.00"
"07:59:58","72.5","60.9","66.9","30.10","287","1","4","0.00","0.00"
"08:04:58","72.7","60.4","65.3","30.10","260","1.3","5","0.00","0.00"
"08:09:58","73","60.4","64.8","30.10","250","1.3","4","0.00","0.00"
"08:14:58","73","61.1","66.2","30.10","255","1.2","5","0.00","0.00"
"08:19:56","73.1","60.6","64.9","30.09","266","1.7","4.6","0.00","0.00"
"08:24:59","73.2","60.6","64.7","30.09","245","1.1","4","0.00","0.00"
"08:29:56","73.3","61.7","67","30.09","246","1","2.3","0.00","0.00"
"08:34:57","73.3","61.7","67.1","30.09","282","1.2","4","0.00","0.00"
"08:39:56","73.6","61.8","66.6","30.09","310","0.9","3.5","0.00","0.00"
"08:44:58","73.9","61.6","65.6","30.09","317","1","4","0.00","0.00"
"08:49:59","74.4","62.2","65.7","30.09","337","1.2","5","0.00","0.00"
"08:54:56","75.2","62.3","64.3","30.09","313","2","5","0.00","0.00"
"08:59:56","75.9","62.5","63.2","30.09","312","1.4","4","0.00","0.00"
"09:04:56","76.5","62.6","62.3","30.09","299","2","6","0.00","0.00"
"09:09:57","77","62.5","61.1","30.09","267","2","4","0.00","0.00"
"09:14:56","77.4","62.1","59.4","30.09","327","2.4","6","0.00","0.00"
"09:19:59","77.7","62.1","58.8","30.09","321","2.5","6","0.00","0.00"
"09:24:56","78","62.3","58.6","30.09","326","2.8","7","0.00","0.00"
"09:29:56","78.3","62.8","58.9","30.09","320","2.7","6.9","0.00","0.00"
"09:34:59","78.8","62.8","58","30.09","289","2.2","7","0.00","0.00"
"09:39:57","79.3","63.2","57.9","30.09","293","2.8","9","0.00","0.00"
"09:44:56","79.9","63.7","57.9","30.09","265","2.4","6","0.00","0.00"
"09:49:56","80.5","63.5","56.2","30.09","284","3.1","9.2","0.00","0.00"
"09:54:57","81","63.1","54.7","30.09","283","4","10.4","0.00","0.00"
"09:59:56","81.3","62.8","53.4","30.09","329","5.3","14","0.00","0.00"
"10:04:56","81.5","62.7","52.8","30.08","326","4.4","12.7","0.00","0.00"
"10:09:55","81.7","63.5","54.1","30.08","310","3.7","11.5","0.00","0.00"
"10:14:57","82.2","64.2","54.7","30.08","305","3.4","9.2","0.00","0.00"
"10:19:57","82.6","64","53.5","30.08","299","3.2","10.4","0.00","0.00"
"10:24:57","82.8","64.7","54.4","30.08","297","3.7","10.4","0.00","0.00"
"10:29:56","83","64.7","54.2","30.08","326","3.5","10","0.00","0.00"
"10:34:56","83.2","64.3","53.1","30.08","324","4.3","12","0.00","0.00"
"10:39:58","83.5","65.1","54","30.08","307","2.8","10.4","0.00","0.00"
"10:44:57","83.8","65.2","53.5","30.08","324","3.4","10.4","0.00","0.00"
"10:49:57","84","65.7","54.3","30.07","227","3.5","9","0.00","0.00"
"10:54:58","84.2","64.7","52.1","30.07","332","4.1","11.5","0.00","0.00"
"10:59:57","84.2","64.7","52.2","30.07","325","3.6","11.5","0.00","0.00"
"11:04:56","84.4","64.6","51.5","30.07","321","4","14","0.00","0.00"
"11:09:56","84.6","65.2","52.3","30.07","306","3.7","13.8","0.00","0.00"
"11:14:59","84.9","65.9","53.1","30.07","269","4.3","9.2","0.00","0.00"
"11:19:59","85.2","65.3","51.6","30.07","340","5.1","12","0.00","0.00"
"11:24:56","85.2","65.3","51.5","30.07","313","5.5","11.5","0.00","0.00"
"11:29:59","85.2","65.8","52.4","30.07","270","3.5","9","0.00","0.00"
"11:34:56","85.5","65.5","51.3","30.07","350","5.1","14","0.00","0.00"
"11:39:57","85.4","65","50.6","30.07","354","4.8","13.8","0.00","0.00"
"11:44:56","85.4","66.1","52.6","30.07","289","3.1","9","0.00","0.00"
"11:49:56","85.9","67.6","54.7","30.06","291","2.6","7","0.00","0.00"
"11:54:56","85.9","65.4","50.4","30.06","189","3.9","13","0.00","0.00"
"11:59:58","85.6","65","50.4","30.06","307","4.8","15","0.00","0.00"
"12:04:58","85.7","66.3","52.6","30.06","272","3.4","12","0.00","0.00"
"12:09:58","86.3","66.4","51.7","30.06","277","2.5","9","0.00","0.00"
"12:14:56","86.8","66.6","51.3","30.06","216","4.5","11.5","0.00","0.00"
"12:19:59","86.9","66.2","50.4","30.05","320","4.5","14","0.00","0.00"
"12:24:59","86.9","65.8","49.6","30.05","324","3.4","13.8","0.00","0.00"
"12:29:59","86.8","65","48.4","30.05","328","5.5","15","0.00","0.00"
"12:34:59","86.7","65.6","49.6","30.04","349","4.9","13.8","0.00","0.00"
"12:39:57","86.8","64.7","48","30.04","334","4.9","13","0.00","0.00"
"12:44:56","86.7","65.7","49.6","30.04","352","3.5","12","0.00","0.00"
"12:49:56","87","65.8","49.5","30.04","287","4.5","15","0.00","0.00"
"12:54:59","87.1","65.4","48.6","30.04","299","4.3","15","0.00","0.00"
"12:59:56","87.3","66.4","49.9","30.04","274","3.5","7","0.00","0.00"
"13:04:55","87.6","66.4","49.4","30.03","233","4.6","10.4","0.00","0.00"
"13:09:56","87.9","66.4","49.1","30.03","314","4","10.4","0.00","0.00"
"13:14:59","88.2","66.8","49.4","30.03","305","3.7","10.4","0.00","0.00"
"13:19:52","88.3","65.8","47.4","30.03","323","3.4","10.4","0.00","0.00"
"13:24:58","87.8","67","50.2","30.03","332","2.2","10.4","0.00","0.00"
"13:29:58","88","66.5","49.2","30.03","319","3.7","12","0.00","0.00"
"13:34:57","87.7","66.1","48.9","30.02","262","3.4","7","0.00","0.00"
"13:39:58","87.3","65.9","49.2","30.02","327","3.6","9.2","0.00","0.00"
"13:44:59","87.5","66.1","49.2","30.02","304","3.2","10","0.00","0.00"
"13:49:55","87.7","66.1","48.9","30.02","256","2.9","11","0.00","0.00"
"13:54:57","88","65.5","47.6","30.02","305","3.7","10.4","0.00","0.00"
"13:59:56","88","65.8","48.1","30.02","280","2.6","8.1","0.00","0.00"
"14:04:59","87.7","65.7","48.2","30.01","291","3.2","7","0.00","0.00"
"14:09:59","88.2","66.9","49.5","30.01","303","3.6","10","0.00","0.00"
"14:14:56","88.4","66.4","48.3","30.01","258","4.2","10.4","0.00","0.00"
"14:19:55","88.1","66","48.1","30.01","252","3.6","7","0.00","0.00"
"14:24:59","88.1","65.7","47.7","30.01","300","2.9","8","0.00","0.00"
"14:29:59","88.2","66.7","49.3","30.01","343","4","12","0.00","0.00"
"14:34:56","88.7","66.2","47.5","30.00","306","4.3","11.5","0.00","0.00"
"14:39:59","88.6","66","47.4","30.00","312","3.7","11.5","0.00","0.00"
"14:44:59","88","65.4","47.2","30.00","333","3.7","18","0.00","0.00"
"14:49:56","88.2","65.3","46.8","30.00","341","4.5","12","0.00","0.00"
"14:54:58","88.8","65.4","46.1","30.00","320","3.1","9.2","0.00","0.00"
"14:59:58","88.8","65.7","46.6","30.00","310","4","11","0.00","0.00"
"15:04:58","89","65.5","46","29.99","332","3.1","9","0.00","0.00"
"15:09:57","89.1","65.5","45.8","29.99","343","4.1","15","0.00","0.00"
"15:14:59","89.2","65.1","45","29.99","329","5.5","14","0.00","0.00"
"15:19:56","89.1","65.8","46.3","29.99","297","3.6","12","0.00","0.00"
"15:24:57","89.7","66.3","46.2","29.99","285","2.3","7","0.00","0.00"
"15:29:58","90.2","65.8","44.7","29.99","307","4.2","12","0.00","0.00"
"15:34:58","90.4","66.1","45","29.98","302","3.1","6","0.00","0.00"
"15:39:56","90.2","65.5","44.3","29.98","306","3.5","7","0.00","0.00"
"15:44:57","90.1","66.4","45.8","29.98","282","3.7","11.5","0.00","0.00"
"15:49:57","90.2","67.3","47","29.98","323","3.6","11.5","0.00","0.00"
"15:54:58","90.6","66.1","44.7","29.98","321","4.9","12","0.00","0.00"
"15:59:58","90.5","66.4","45.2","29.98","260","3.7","10.4","0.00","0.00"
"16:04:57","90.5","66.8","46","29.98","269","4","10","0.00","0.00"
"16:09:56","90.1","66.5","45.9","29.98","289","3.6","10.4","0.00","0.00"
"16:14:57","90.3","67.1","46.5","29.98","350","3.9","13","0.00","0.00"
"16:19:57","90.4","66.3","45.3","29.97","289","5.6","14","0.00","0.00"
"16:24:57","90.1","66.2","45.4","29.97","270","4.7","11.5","0.00","0.00"
"16:29:57","89.9","66.4","46.1","29.97","271","3.9","10","0.00","0.00"
"16:34:58","90.2","66.8","46.4","29.97","265","3.6","9.2","0.00","0.00"
"16:39:56","90.8","68","47.4","29.97","242","3.1","8.1","0.00","0.00"
"16:44:57","91.2","66.8","44.9","29.97","319","3.5","9.2","0.00","0.00"
"16:49:58","90.9","66.1","44.3","29.97","326","3.2","11","0.00","0.00"
"16:54:58","90.4","66.2","45","29.97","321","3.7","12","0.00","0.00"
"16:59:58","89.8","65.9","45.4","29.97","303","4.3","12","0.00","0.00"
"17:04:58","89.8","66.1","45.7","29.97","304","4","9.2","0.00","0.00"
"17:09:58","90","66.7","46.4","29.97","325","3","10","0.00","0.00"
"17:14:56","90","65.3","44.3","29.97","330","6","13","0.00","0.00"
"17:19:59","89.3","65.5","45.5","29.97","327","3.2","11","0.00","0.00"
"17:24:59","89.1","66.3","47.1","29.97","322","4","11.5","0.00","0.00"
"17:29:59","89","65.9","46.5","29.97","293","2.7","5.8","0.00","0.00"
"17:34:58","89.3","67.3","48.4","29.97","329","1.5","5","0.00","0.00"
"17:39:58","89.7","66.9","47.1","29.97","319","2.8","9.2","0.00","0.00"
"17:44:58","89.8","66.2","45.9","29.97","290","2.6","5","0.00","0.00"
"17:49:58","89.6","66.2","46.1","29.97","307","4.2","13","0.00","0.00"
"17:54:58","89.7","66.1","45.8","29.97","295","2.9","9","0.00","0.00"
"17:59:58","89.8","66.4","46.2","29.97","309","2.9","7","0.00","0.00"
"18:04:58","89.9","66.1","45.7","29.97","317","2.6","5","0.00","0.00"
"18:09:59","90.1","67.2","47.1","29.97","314","0.9","4","0.00","0.00"
"18:14:58","90.5","67.6","47.3","29.97","310","0.9","5","0.00","0.00"
"18:19:58","90.7","66.9","45.8","29.97","323","2.6","7","0.00","0.00"
"18:24:58","90.2","66.4","45.7","29.97","353","3","7","0.00","0.00"
"18:29:59","89.5","65.8","45.7","29.97","300","3.5","8.1","0.00","0.00"
"18:34:56","89","66.1","46.9","29.97","296","2.4","10.4","0.00","0.00"
"18:39:58","88.7","66.3","47.7","29.97","265","1.7","5","0.00","0.00"
"18:44:58","88.5","66.4","48.1","29.97","243","1.8","9","0.00","0.00"
"18:49:59","88.2","66.4","48.7","29.97","276","2.6","9.2","0.00","0.00"
"18:54:59","87.8","66.2","48.8","29.97","235","2.5","9","0.00","0.00"
"18:59:59","87.4","66.3","49.7","29.97","280","2.3","5","0.00","0.00"
"19:04:59","87.4","66.3","49.8","29.97","286","2","5","0.00","0.00"
"19:09:59","87.2","66.4","50.1","29.97","281","2.2","7","0.00","0.00"
"19:14:57","87","66.2","50.2","29.98","246","1.7","4","0.00","0.00"
"19:19:58","86.8","66.2","50.5","29.98","16","1.3","4","0.00","0.00"
"19:24:58","86.7","66.8","51.7","29.98","327","0.6","2.3","0.00","0.00"
"19:29:59","86.4","66.6","51.9","29.98","324","1.1","3.5","0.00","0.00"
"19:34:55","86.1","66.5","52.1","29.98","331","0.4","3.5","0.00","0.00"
"19:39:59","85.9","66.7","52.9","29.98","318","0.8","2.3","0.00","0.00"
"19:44:56","85.5","66.5","53.1","29.98","296","0.6","2.3","0.00","0.00"
"19:49:56","85.2","66.5","53.7","29.98","321","0.7","4","0.00","0.00"
"19:54:58","84.9","66.6","54.3","29.98","325","0.8","3.5","0.00","0.00"
"19:59:56","84.7","66.4","54.3","29.99","312","0.9","3","0.00","0.00"
"20:04:56","84.3","66.5","55.3","29.99","265","1.2","2.3","0.00","0.00"
"20:09:56","83.9","66.1","55.3","29.99","297","0.7","4","0.00","0.00"
"20:14:56","83.6","65.9","55.2","29.99","285","0.9","3.5","0.00","0.00"
"20:19:58","83.4","65.9","55.6","29.99","293","1.4","4","0.00","0.00"
"20:24:56","83.3","65.9","55.8","29.99","326","1.2","3.5","0.00","0.00"
"20:29:59","83.1","65.8","56","30.00","298","1.3","4","0.00","0.00"
"20:34:57","83","65.6","55.8","30.00","327","0.9","3.5","0.00","0.00"
"20:39:57","82.8","65.6","56.2","30.00","328","1","3.5","0.00","0.00"
"20:44:59","82.5","65.6","56.9","30.00","266","0.8","4","0.00","0.00"
"20:49:58","82.1","65.5","57.3","30.00","278","0.4","3.5","0.00","0.00"
"20:54:59","81.8","65.5","57.9","30.00","285","0.8","4","0.00","0.00"
"20:59:57","81.5","65.3","58","30.01","285","0.9","3.5","0.00","0.00"
"21:04:59","81.4","65.6","58.8","30.01","284","0.7","2.3","0.00","0.00"
"21:09:56","81.1","65.3","58.7","30.01","304","1","5","0.00","0.00"
"21:14:55","80.9","65.2","59","30.01","327","0.4","2.3","0.00","0.00"
"21:19:57","80.7","65.1","59.1","30.01","317","0.8","4","0.00","0.00"
"21:24:59","80.5","65.3","60.1","30.01","289","0.9","3.5","0.00","0.00"
"21:29:56","80.1","65.4","61","30.01","284","0.6","2.3","0.00","0.00"
"21:34:57","79.7","65.2","61.3","30.01","284","0.5","2.3","0.00","0.00"
"21:39:59","79.4","64.9","61.4","30.01","284","0.6","2.3","0.00","0.00"
"21:44:56","79.3","65.1","62","30.02","263","0.9","3.5","0.00","0.00"
"21:49:57","79.3","65.1","61.9","30.02","248","1","2.3","0.00","0.00"
"21:54:59","79.2","65.2","62.4","30.02","251","0.6","3","0.00","0.00"
"21:59:56","79.1","65.3","62.8","30.02","308","0.9","3.5","0.00","0.00"
"22:04:58","78.8","65.1","63","30.02","258","0.4","2.3","0.00","0.00"
"22:09:59","78.6","65","63","30.02","258","0.5","3","0.00","0.00"
"22:14:58","78.4","65.2","63.8","30.03","259","0.9","3.5","0.00","0.00"
"22:19:57","78","65.3","64.8","30.03","259","0.8","2.3","0.00","0.00"
"22:24:56","77.7","65.3","65.7","30.03","259","0.5","1.2","0.00","0.00"
"22:29:59","77.4","65.1","66","30.03","259","0.4","1.2","0.00","0.00"
"22:34:58","77.2","65","66","30.03","259","0","1.2","0.00","0.00"
"22:39:57","77","64.9","66.1","30.03","259","0","0","0.00","0.00"
"22:44:58","76.9","64.8","66.2","30.04","259","0","0","0.00","0.00"
"22:49:59","76.8","65","67.1","30.04","259","0","0","0.00","0.00"
"22:54:56","76.6","65.2","68","30.04","263","0.1","1.2","0.00","0.00"
"22:59:56","76.4","65.2","68.4","30.04","263","0.8","2.3","0.00","0.00"
"23:04:58","76.1","65.3","69.2","30.04","261","1.3","3.5","0.00","0.00"
"23:09:58","76","65.1","69","30.04","216","1.1","3.5","0.00","0.00"
"23:14:57","76.1","65.1","68.6","30.04","355","0.2","3.5","0.00","0.00"
"23:19:56","76.5","65","67.7","30.04","265","1.2","5","0.00","0.00"
"23:24:56","76.9","65.1","66.9","30.04","247","0.3","2.3","0.00","0.00"
"23:29:57","77.1","64.9","66","30.04","253","0.5","2.3","0.00","0.00"
"23:34:58","77.4","65.1","66","30.04","302","0.8","3.5","0.00","0.00"
"23:39:56","77.6","65.2","65.8","30.04","321","0.4","2.3","0.00","0.00"
"23:44:58","77.6","65.2","65.7","30.04","321","0.1","1.2","0.00","0.00"
"23:49:58","77.5","65.2","66","30.04","321","0.1","2","0.00","0.00"
"23:54:59","77.4","65.2","66.2","30.04","301","0.8","2.3","0.00","0.00"
"23:59:56","77.1","65.4","67.1","30.04","304","1","3","0.00","0.00"
